Weather History for KMNM - October, 2011

Change the Weather History Date:

Thursday, October 6, 2011

  Actual Average Record
Temperature  
Mean Temperature 56 °F -  
Max Temperature 69 °F 61 °F 89 °F (1963)
Min Temperature 42 °F 42 °F 25 °F (1952)
Degree Days  
Heating Degree Days 10    
Growing Degree Days 6 (Base 50)    
Moisture  
Dew Point 52 °F    
Average Humidity 84    
Maximum Humidity 100    
Minimum Humidity 56    
Precipitation  
Precipitation 0.00 in - - ()
Sea Level Pressure  
Sea Level Pressure 30.24 in    
Wind  
Wind Speed 2 mph (SE)    
Max Wind Speed 9 mph    
Max Gust Speed -    
Visibility 7 miles    
Events      
Averages and records for this station are not official NWS values.
T = Trace of Precipitation, MM = Missing Value Source: NWS Daily Summary

Daily Weather History Graph

Daily Weather History Graph

Search for Another Location

Airport or City:

Trip Planner

Search our weather history database for the weather conditions in past years. The results will help you decide how hot, cold, wet, or windy it might be!

Date:

Astronomy

Oct. 06, 2011 Rise Set
Actual Time 6:54 AM CDT 6:22 PM CDT
Civil Twilight 6:25 AM CDT 6:51 PM CDT
Nautical Twilight 5:51 AM CDT 7:25 PM CDT
Astronomical Twilight 5:16 AM CDT 7:59 PM CDT
Moon 3:47 PM CDT (10/6) 1:29 AM CDT (10/6)
Length of Visible Light 12h 26m
Length of Day
11h 27m
Waxing Gibbous, 75% of the Moon is Illuminated
Oct 6
Waxing Gibbous
Oct 11
Full
Oct 19
Last Quarter
Oct 26
New
Nov 2
First Quarter

Hourly Weather History & Observations

Time (CDT) Temp. Dew Point Humidity Pressure Visibility Wind Dir Wind Speed Gust Speed Precip Events Conditions
12:15 AM 51.8 °F 50.0 °F 94% 30.22 in 1.5 mi Calm Calm - N/A   Clear
12:35 AM 51.8 °F 51.8 °F 100% 30.23 in 4.0 mi Calm Calm - N/A   Clear
12:55 AM 51.8 °F 50.0 °F 94% 30.23 in 5.0 mi SE 3.5 mph - N/A   Clear
1:15 AM 51.8 °F 50.0 °F 94% 30.22 in 4.0 mi Calm Calm - N/A   Clear
1:35 AM 51.8 °F 50.0 °F 94% 30.23 in 3.0 mi Calm Calm - N/A   Clear
1:55 AM 51.8 °F 48.2 °F 88% 30.23 in 4.0 mi Calm Calm - N/A   Clear
2:15 AM 51.8 °F 50.0 °F 94% 30.23 in 5.0 mi Calm Calm - N/A   Clear
2:35 AM 51.8 °F 50.0 °F 94% 30.23 in 5.0 mi Calm Calm - N/A   Clear
2:55 AM 50.0 °F 48.2 °F 94% 30.23 in 2.0 mi Calm Calm - N/A   Clear
3:15 AM 48.2 °F 46.4 °F 93% 30.23 in 1.5 mi Calm Calm - N/A   Clear
3:35 AM 46.4 °F 46.4 °F 100% 30.23 in 1.5 mi Calm Calm - N/A   Clear
3:55 AM 46.4 °F 44.6 °F 93% 30.23 in 1.5 mi Calm Calm - N/A   Clear
4:35 AM 46.4 °F 44.6 °F 93% 30.24 in 1.5 mi Calm Calm - N/A   Clear
4:55 AM 46.4 °F 44.6 °F 93% 30.24 in 2.0 mi Calm Calm - N/A   Clear
5:15 AM 42.8 °F 42.8 °F 100% 30.25 in 3.0 mi Calm Calm - N/A   Clear
5:35 AM 44.6 °F 42.8 °F 93% 30.25 in 3.0 mi Calm Calm - N/A   Clear
5:55 AM 46.4 °F 44.6 °F 93% 30.25 in 0.8 mi Calm Calm - N/A   Unknown
6:15 AM 44.6 °F 41.0 °F 87% 30.25 in 1.8 mi Calm Calm - N/A   Clear
6:35 AM 48.2 °F 48.2 °F 100% 30.25 in 0.8 mi Calm Calm - N/A   Unknown
6:55 AM 48.2 °F 48.2 °F 100% 30.26 in 0.2 mi Calm Calm - N/A   Unknown
7:15 AM 48.2 °F 48.2 °F 100% 30.26 in 0.2 mi Calm Calm - N/A   Unknown
7:35 AM 50.0 °F 50.0 °F 100% 30.26 in 0.2 mi Calm Calm - N/A   Unknown
7:55 AM 51.8 °F 51.8 °F 100% 30.27 in 1.0 mi Calm Calm - N/A   Clear
8:15 AM 51.8 °F 51.8 °F 100% 30.27 in 5.0 mi Calm Calm - N/A   Clear
8:55 AM 57.2 °F 53.6 °F 88% 30.27 in 10.0 mi SSE 4.6 mph - N/A   Clear
9:15 AM 57.2 °F 53.6 °F 88% 30.28 in 10.0 mi South 5.8 mph - N/A   Clear
9:35 AM 59.0 °F 55.4 °F 88% 30.28 in 10.0 mi SE 4.6 mph - N/A   Clear
9:55 AM 60.8 °F 53.6 °F 77% 30.27 in 10.0 mi SE 5.8 mph - N/A   Clear
10:55 AM 62.6 °F 55.4 °F 77% 30.27 in 10.0 mi SSE 4.6 mph - N/A   Clear
11:15 AM 64.4 °F 55.4 °F 73% 30.26 in 10.0 mi East 3.5 mph - N/A   Clear
11:35 AM 64.4 °F 55.4 °F 73% 30.26 in 10.0 mi SE 5.8 mph - N/A   Clear
11:55 AM 64.4 °F 55.4 °F 73% 30.25 in 10.0 mi SE 6.9 mph - N/A   Clear
12:15 PM 64.4 °F 55.4 °F 73% 30.25 in 10.0 mi ESE 8.1 mph - N/A   Clear
12:35 PM 64.4 °F 55.4 °F 73% 30.25 in 10.0 mi ESE 8.1 mph - N/A   Clear
12:55 PM 66.2 °F 55.4 °F 68% 30.24 in 10.0 mi ESE 8.1 mph - N/A   Clear
1:15 PM 66.2 °F 55.4 °F 68% 30.23 in 10.0 mi ESE 8.1 mph - N/A   Clear
1:35 PM 66.2 °F 55.4 °F 68% 30.23 in 10.0 mi ESE 8.1 mph - N/A   Clear
1:55 PM 69.8 °F 55.4 °F 60% 30.22 in 10.0 mi ESE 9.2 mph - N/A   Clear
2:15 PM 69.8 °F 53.6 °F 56% 30.22 in 10.0 mi SSE 8.1 mph - N/A   Clear
2:35 PM 69.8 °F 55.4 °F 60% 30.22 in 10.0 mi SE 9.2 mph - N/A   Clear
3:35 PM 66.2 °F 55.4 °F 68% 30.22 in 10.0 mi ESE 9.2 mph - N/A   Clear
3:55 PM 64.4 °F 57.2 °F 77% 30.22 in 7.0 mi ESE 6.9 mph - N/A   Clear
4:15 PM 64.4 °F 57.2 °F 77% 30.22 in 10.0 mi SE 5.8 mph - N/A   Clear
4:35 PM 66.2 °F 55.4 °F 68% 30.22 in 10.0 mi SE 5.8 mph - N/A   Clear
4:55 PM 64.4 °F 55.4 °F 73% 30.21 in 10.0 mi SE 6.9 mph - N/A   Clear
5:15 PM 64.4 °F 57.2 °F 77% 30.22 in 10.0 mi ESE 5.8 mph - N/A   Clear
5:35 PM 64.4 °F 57.2 °F 77% 30.22 in 10.0 mi SE 4.6 mph - N/A   Clear
5:55 PM 62.6 °F 55.4 °F 77% 30.22 in 10.0 mi SE 5.8 mph - N/A   Clear
6:15 PM 60.8 °F 53.6 °F 77% 30.21 in 10.0 mi SE 5.8 mph - N/A   Clear
6:35 PM 60.8 °F 53.6 °F 77% 30.21 in 10.0 mi SE 4.6 mph - N/A   Clear
6:55 PM 59.0 °F 51.8 °F 77% 30.22 in 10.0 mi Calm Calm - N/A   Clear
7:15 PM 57.2 °F 53.6 °F 88% 30.22 in 10.0 mi Calm Calm - N/A   Clear
7:35 PM 57.2 °F 53.6 °F 88% 30.22 in 9.0 mi Calm Calm - N/A   Clear
7:55 PM 57.2 °F 51.8 °F 82% 30.22 in 8.0 mi South 3.5 mph - N/A   Clear
8:15 PM 55.4 °F 50.0 °F 82% 30.21 in 10.0 mi SSE 3.5 mph - N/A   Clear
8:35 PM 55.4 °F 50.0 °F 82% 30.22 in 10.0 mi South 4.6 mph - N/A   Clear
8:55 PM 59.0 °F 50.0 °F 72% 30.21 in 10.0 mi South 5.8 mph - N/A   Clear
9:15 PM 57.2 °F 50.0 °F 77% 30.22 in 10.0 mi South 3.5 mph - N/A   Clear
9:35 PM 57.2 °F 51.8 °F 82% 30.22 in 10.0 mi South 3.5 mph - N/A   Clear
9:55 PM 57.2 °F 51.8 °F 82% 30.23 in 10.0 mi SSW 3.5 mph - N/A   Clear
10:15 PM 55.4 °F 50.0 °F 82% 30.22 in 10.0 mi Calm Calm - N/A   Clear
10:35 PM 53.6 °F 48.2 °F 82% 30.22 in 10.0 mi SE 3.5 mph - N/A   Clear
10:55 PM 53.6 °F 51.8 °F 94% 30.22 in 10.0 mi Calm Calm - N/A   Clear
11:15 PM 53.6 °F 50.0 °F 88% 30.22 in 10.0 mi Calm Calm - N/A   Clear
11:35 PM 55.4 °F 51.8 °F 88% 30.22 in 10.0 mi Calm Calm - N/A   Clear
11:55 PM 51.8 °F 48.2 °F 88% 30.22 in 4.0 mi Calm Calm - N/A   Clear